Regional Weather Roundup
Issued by NWS

Home | Current Version | Previous Version | Text Only | Print | Product List | Glossary On
Versions: 1 2 3 4 5 6 7 8 9 10 11 12 13 14 15 16 17 18 19 20 21 22 23 24 25 26 27 28 29 30 31 32 33 34 35 36 37 38 39 40 41 42 43 44 45 46 47 48 49 50
000
ASUS46 KPQR 220310
RWROR

OREGON REGIONAL WEATHER ROUNDUP
NATIONAL WEATHER SERVICE PORTLAND OR
800 PM PDT TUE OCT 21 2014

NOTE: "FAIR" INDICATES FEW OR NO CLOUDS BELOW 12,000 FEET WITH
NO SIGNIFICANT WEATHER AND/OR OBSTRUCTIONS TO VISIBILITY.

ORZ001>013-220400-
NORTHWEST OREGON


CITY           SKY/WX    TMP DP  RH WIND       PRES   REMARKS
ASTORIA        LGT RAIN  56  52  86 S6        29.81F FOG
NEWPORT        DRIZZLE   55  52  88 SE9       29.90F
PORTLAND       CLOUDY    58  52  80 E13       29.90F
VANCOUVER WA   CLOUDY    59  50  72 SE12      29.90F
SCAPPOOSE      CLOUDY    57  51  80 SW3       29.88F
HILLSBORO      CLOUDY    58  50  75 SE10      29.89F
AURORA         CLOUDY    58  47  66 SE3       29.90F
MCMINNVILLE    CLOUDY    57  51  80 SE3       29.90F
SALEM          CLOUDY    60  47  61 S10       29.89F
CORVALLIS      CLOUDY    55  52  88 SW6       29.92F
EUGENE         CLOUDY    59  47  64 S9        29.93F
$$

ORZ021-028-220400-
SOUTHWEST OREGON


CITY           SKY/WX    TMP DP  RH WIND       PRES   REMARKS
NORTH BEND     CLOUDY    57  55  94 SE8       29.93F
BROOKINGS      LGT RAIN  56  53  89 VRB7      30.01F
ROSEBURG       LGT RAIN  59  48  67 S3        29.96S
SEXTON SUMMIT  CLOUDY    44  42  93 S15       29.99F
MEDFORD        MOCLDY    56  47  71 CALM      30.00S
$$

ORZ009-041-220400-
COLUMBIA GORGE


CITY           SKY/WX    TMP DP  RH WIND       PRES   REMARKS
TROUTDALE      CLOUDY    57  51  80 E8        29.90F
THE DALLES     PTCLDY    54  47  77 CALM      29.94S
$$

ORZ029>031-042>050-061>064-220400-
EASTERN OREGON


CITY           SKY/WX    TMP DP  RH WIND       PRES   REMARKS
REDMOND        CLEAR     45  35  68 SE3       29.97F
BEND           PTCLDY    46  36  66 SW8       30.00F
KLAMATH FALLS  MOCLDY    46  38  73 CALM      30.05R
LAKEVIEW       MOCLDY    36  28  75 CALM      30.09S
HERMISTON      CLEAR     50  43  77 SE3       29.95F
PENDLETON      CLEAR     53  40  61 SE9       29.97S
JOHN DAY       CLEAR     46  37  71 SE13      30.03S
MEACHAM        CLEAR     36  34  92 CALM      30.02S
LA GRANDE      CLEAR     45  27  49 S7        30.00F
BAKER CITY     CLEAR     39  31  72 SE6       30.03S WCI  35
BURNS          CLEAR     33  27  78 N5        30.06S WCI  29
ROME             N/A     45  32  60 E5        30.05F
ONTARIO        MOCLDY    50  36  58 E3        30.04R
$$



USA.gov is the U.S. government's official web portal to all federal, state and local government web resources and services.